EW4305 Weather Reports


time (UTC)temp
C
wind
direction
speed
KPH
gust
KPH
rain 1hr
cm
rain 24hr
cm
rain mn
cm
humidity
%
barometer
mb
20260906213002 31 108 1.6 8.0 0.00 0.00 0.00 33 998.8
20260906210502 31 110 0.0 4.8 0.00 0.00 0.00 33 999.5
20260906210003 31 114 1.6 4.8 0.00 0.00 0.00 33 999.3
20260906205502 31 119 1.6 11.3 0.00 0.00 0.00 34 999.3
20260906205003 31 108 1.6 14.5 0.00 0.00 0.00 35 999.4
20260906204003 31 140 8.0 16.1 0.00 0.00 0.00 37 999.6
20260906203003 31 90 0.0 4.8 0.00 0.00 0.00 37 999.6
20260906202503 30 90 0.0 3.2 0.00 0.00 0.00 36 999.7
20260906201503 30 92 1.6 9.7 0.00 0.00 0.00 38 1000.2
20260906195503 30 94 1.6 4.8 0.00 0.00 0.00 38 1000.4
20260906195003 30 88 1.6 4.8 0.00 0.00 0.00 38 1000.4
20260906194502 30 92 0.0 8.0 0.00 0.00 0.00 37 1000.3
20260906194002 30 88 1.6 9.7 0.00 0.00 0.00 37 1000.3
20260906193503 30 82 0.0 4.8 0.00 0.00 0.00 38 1000.3
20260906193002 30 80 0.0 4.8 0.00 0.00 0.00 37 1000.5
20260906192503 30 77 0.0 4.8 0.00 0.00 0.00 39 1000.5
20260906191002 29 90 0.0 9.7 0.00 0.00 0.00 37 1001.1
20260906190503 29 84 0.0 3.2 0.00 0.00 0.00 38 1001.3
20260906190002 28 81 1.6 8.0 0.00 0.00 0.00 40 1001.4
20260906185503 28 40 1.6 8.0 0.00 0.00 0.00 41 1001.6
20260906184002 28 63 1.6 8.0 0.00 0.00 0.00 44 1001.7
20260906183003 28 82 0.0 4.8 0.00 0.00 0.00 45 1001.9
20260906182502 27 82 0.0 3.2 0.00 0.00 0.00 44 1002.3
20260906182003 27 77 1.6 8.0 0.00 0.00 0.00 44 1002.4
20260906181503 26 69 0.0 3.2 0.00 0.00 0.00 47 1002.8
20260906180003 26 74 1.6 8.0 0.00 0.00 0.00 49 1002.6
20260906175503 26 82 0.0 8.0 0.00 0.00 0.00 50 1002.9
20260906175003 26 96 0.0 4.8 0.00 0.00 0.00 50 1003.0
20260906174003 26 101 0.0 0.0 0.00 0.00 0.00 48 1003.2
20260906173503 26 101 0.0 0.0 0.00 0.00 0.00 52 1003.3
20260906173003 26 101 0.0 4.8 0.00 0.00 0.00 51 1003.7
20260906172503 26 101 0.0 4.8 0.00 0.00 0.00 52 1003.7
20260906171503 25 94 0.0 3.2 0.00 0.00 0.00 52 1004.1
20260906171003 25 95 0.0 0.0 0.00 0.00 0.00 53 1004.2
20260906170003 25 95 0.0 0.0 0.00 0.00 0.00 54 1004.5
20260906165502 25 95 0.0 0.0 0.00 0.00 0.00 54 1004.4
20260906164503 24 95 0.0 4.8 0.00 0.00 0.00 55 1004.5
20260906164003 24 102 1.6 4.8 0.00 0.00 0.00 57 1004.7
20260906163003 23 98 0.0 4.8 0.00 0.00 0.00 59 1004.7
20260906162003 23 92 0.0 4.8 0.00 0.00 0.00 59 1005.1
20260906161503 23 96 3.2 8.0 0.00 0.00 0.00 60 1005.1
20260906161002 23 47 0.0 4.8 0.00 0.00 0.00 58 1005.1
20260906160502 22 40 1.6 4.8 0.00 0.00 0.00 59 1005.3
20260906155502 22 30 1.6 8.0 0.00 0.00 0.00 62 1005.0
20260906155003 22 52 0.0 3.2 0.00 0.00 0.00 61 1005.0
20260906154503 22 53 1.6 4.8 0.00 0.00 0.00 62 1005.0
20260906153503 22 52 0.0 3.2 0.00 0.00 0.00 62 1005.0
20260906153003 22 53 0.0 4.8 0.00 0.00 0.00 62 1005.0
20260906152003 21 52 0.0 4.8 0.00 0.00 0.00 63 1005.4
20260906151503 21 51 0.0 4.8 0.00 0.00 0.00 64 1005.5
20260906145003 21 54 0.0 1.6 0.00 0.00 0.00 62 1005.3
20260906144003 21 54 0.0 0.0 0.00 0.00 0.00 62 1005.3
20260906141503 20 54 0.0 0.0 0.00 0.00 0.00 64 1005.5
20260906141003 20 54 0.0 0.0 0.00 0.00 0.00 66 1006.0
20260906134503 18 54 0.0 0.0 0.00 0.00 0.00 74 1005.6
20260906134003 17 54 0.0 0.0 0.00 0.00 0.00 76 1005.4
20260906133503 17 54 0.0 0.0 0.00 0.00 0.00 76 1005.3
20260906131003 17 54 0.0 0.0 0.00 0.00 0.00 76 1005.4
20260906124503 17 54 0.0 0.0 0.00 0.00 0.00 83 1004.6
20260906123503 17 54 0.0 0.0 0.00 0.00 0.00 83 1004.6
20260906123003 17 54 0.0 0.0 0.00 0.00 0.00 84 1004.6
20260906122503 17 54 0.0 0.0 0.00 0.00 0.00 84 1004.7
20260906122003 17 54 0.0 0.0 0.00 0.00 0.00 83 1004.6
20260906121004 17 54 0.0 0.0 0.00 0.00 0.00 83 1004.6
20260906113003 17 54 0.0 0.0 0.00 0.00 0.00 79 1003.6
20260906111503 18 54 0.0 0.0 0.00 0.00 0.00 79 1003.5
20260906105503 18 54 0.0 0.0 0.00 0.00 0.00 78 1002.9
20260906104003 18 54 1.6 8.0 0.00 0.00 0.00 77 1002.8
20260906103504 18 53 1.6 8.0 0.00 0.00 0.00 77 1002.7
20260906103003 18 51 1.6 4.8 0.00 0.00 0.00 77 1002.7
20260906102503 18 51 0.0 0.0 0.00 0.00 0.00 77 1002.8
20260906100003 19 53 0.0 0.0 0.00 0.00 0.00 76 1002.5
20260906095003 19 53 0.0 0.0 0.00 0.00 0.00 74 1002.4
20260906092004 19 53 0.0 0.0 0.00 0.00 0.00 71 1001.8
20260906091503 19 53 0.0 0.0 0.00 0.00 0.00 70 1001.7
20260906091003 19 53 0.0 0.0 0.00 0.00 0.00 70 1001.5
20260906085503 20 53 0.0 0.0 0.00 0.00 0.00 68 1001.4
20260906084503 20 53 0.0 0.0 0.00 0.00 0.00 71 1001.4
20260906083503 20 53 0.0 0.0 0.00 0.00 0.00 70 1001.3
20260906083003 20 53 0.0 0.0 0.00 0.00 0.00 70 1001.4
20260906080004 20 53 0.0 0.0 0.00 0.00 0.00 67 1001.6
20260906072504 20 54 0.0 0.0 0.00 0.00 0.00 66 1001.6
20260906071504 20 54 0.0 0.0 0.00 0.00 0.00 66 1001.4
20260906065450 20 56 0.0 3.2 0.00 0.00 0.00 68 1001.7
20260906064951 20 56 0.0 0.0 0.00 0.00 0.00 67 1001.6
20260906064450 20 56 0.0 0.0 0.00 0.00 0.00 66 1001.9
20260906063950 20 56 0.0 0.0 0.00 0.00 0.00 66 1001.6
20260906062450 20 56 0.0 0.0 0.00 0.00 0.00 64 1001.9
20260906061950 20 56 0.0 0.0 0.00 0.00 0.00 62 1002.0
20260906061450 20 56 0.0 0.0 0.00 0.00 0.00 60 1002.0
20260906060950 20 56 0.0 0.0 0.00 0.00 0.00 61 1002.0
20260906060451 20 56 0.0 0.0 0.00 0.00 0.00 59 1001.7
20260906055950 21 56 0.0 0.0 0.00 0.00 0.00 58 1001.8
20260906055450 21 56 0.0 0.0 0.00 0.00 0.00 57 1001.4
20260906053950 21 56 0.0 0.0 0.00 0.00 0.00 55 1001.6
20260906053451 21 56 0.0 0.0 0.00 0.00 0.00 55 1001.9
20260906052450 21 56 0.0 0.0 0.00 0.00 0.00 53 1001.8
20260906051950 21 56 0.0 0.0 0.00 0.00 0.00 52 1001.8
20260906051450 21 56 0.0 0.0 0.00 0.00 0.00 50 1001.8
20260906050951 21 56 0.0 8.0 0.00 0.00 0.00 50 1001.2
20260906050450 22 95 1.6 12.9 0.00 0.00 0.00 48 1001.2
20260906045450 21 99 0.0 0.0 0.00 0.00 0.00 47 1001.8
20260906044951 21 101 0.0 0.0 0.00 0.00 0.00 48 1001.7
20260906043951 21 101 0.0 0.0 0.00 0.00 0.00 48 1001.4
20260906043451 22 101 0.0 0.0 0.00 0.00 0.00 48 1001.0
20260906042951 22 101 0.0 0.0 0.00 0.00 0.00 47 1000.9
20260906042451 22 101 0.0 0.0 0.00 0.00 0.00 46 1000.9
20260906041951 22 101 0.0 0.0 0.00 0.00 0.00 46 1000.8
20260906041450 22 101 0.0 0.0 0.00 0.00 0.00 43 1000.5
20260906035951 23 101 1.6 4.8 0.00 0.00 0.00 40 1001.4
20260906033951 23 333 0.0 0.0 0.00 0.00 0.00 41 1001.3
20260906033450 23 333 0.0 0.0 0.00 0.00 0.00 40 1001.0
20260906031451 24 333 0.0 0.0 0.00 0.00 0.00 38 1000.6
20260906030451 24 333 0.0 3.2 0.00 0.00 0.00 39 1000.5
20260906024450 24 355 0.0 0.0 0.00 0.00 0.00 39 1001.4
20260906023450 25 355 0.0 0.0 0.00 0.00 0.00 39 1001.5
20260906022951 25 355 0.0 1.6 0.00 0.00 0.00 38 1001.5
20260906021951 25 342 0.0 0.0 0.00 0.00 0.00 39 1001.0
20260906021451 26 342 0.0 0.0 0.00 0.00 0.00 39 1001.0
20260906020951 26 342 0.0 0.0 0.00 0.00 0.00 37 1000.8
20260906020451 26 342 0.0 0.0 0.00 0.00 0.00 36 1000.4
20260906015951 26 342 0.0 0.0 0.00 0.00 0.00 34 1001.2
20260906015451 27 342 0.0 0.0 0.00 0.00 0.00 33 1001.1
20260906014951 27 342 0.0 0.0 0.00 0.00 0.00 33 1001.1
20260906013950 27 342 0.0 0.0 0.00 0.00 0.00 32 1000.7
20260906013451 27 342 0.0 1.6 0.00 0.00 0.00 31 1000.7
20260906012950 28 342 1.6 4.8 0.00 0.00 0.00 31 1000.6
20260906012451 28 337 0.0 4.8 0.00 0.00 0.00 31 1000.5
20260906011951 28 345 0.0 14.5 0.00 0.00 0.00 30 1000.4
20260906010951 28 358 3.2 9.7 0.00 0.00 0.00 28 1000.0
20260906010451 28 344 0.0 9.7 0.00 0.00 0.00 27 1000.2
20260906005451 29 325 1.6 8.0 0.00 0.00 0.00 27 1001.9
20260906004950 30 335 0.0 3.2 0.00 0.00 0.00 26 1001.8
20260906003951 30 297 3.2 14.5 0.00 0.00 0.00 25 1001.4
20260906002951 31 282 1.6 9.7 0.00 0.00 0.00 23 1001.2
20260906002451 31 2 1.6 11.3 0.00 0.00 0.00 22 1000.8
20260906001951 31 105 0.0 0.0 0.00 0.00 0.00 21 1000.7
20260906000951 32 105 0.0 0.0 0.00 0.00 0.00 22 1000.8
20260905235951 32 105 0.0 0.0 0.00 0.00 0.00 23 1000.8
20260905235450 32 105 0.0 0.0 0.00 0.00 0.00 23 1000.5
20260905234451 32 105 0.0 0.0 0.00 0.00 0.00 21 1000.4
20260905233951 32 105 0.0 0.0 0.00 0.00 0.00 20 1000.4
20260905232951 32 105 0.0 0.0 0.00 0.00 0.00 20 1000.3
20260905231451 33 105 0.0 0.0 0.00 0.00 0.00 19 1000.2
20260905225951 33 105 0.0 0.0 0.00 0.00 0.00 17 999.8
20260905224952 33 105 0.0 0.0 0.00 0.00 0.00 18 999.7
20260905223951 33 105 6.4 14.5 0.00 0.00 0.00 17 999.7
20260905222951 34 98 0.0 3.2 0.00 0.00 0.00 18 999.3
20260905220951 34 70 1.6 4.8 0.00 0.00 0.00 20 999.3
20260905215951 34 91 3.2 11.3 0.00 0.00 0.00 18 999.5
20260905213951 34 108 3.2 11.3 0.00 0.00 0.00 19 999.9